Regional Weather Roundup
Issued by NWS

Home | Current Version | Previous Version | Graphics & Text | Print | Product List | Glossary On
Versions: 1 2 3 4 5 6 7 8 9 10 11 12 13 14 15 16 17 18 19 20 21 22 23 24 25 26 27 28 29 30 31 32 33 34 35 36 37 38 39 40 41 42 43 44 45 46 47 48 49 50
000
ASUS43 KDMX 260807
RWRIA

WEATHER ROUNDUP FOR IOWA
NATIONAL WEATHER SERVICE DES MOINES IA
300 AM CDT SAT JUL 26 2014

NOTE: "FAIR" INDICATES FEW OR NO CLOUDS BELOW 12,000 FEET WITH NO
SIGNIFICANT WEATHER AND/OR OBSTRUCTIONS TO VISIBILITY.

* - THESE STATIONS ARE NOT NWS STATIONS...THUS NOT UNDER NWS
QUALITY CONTROL.  THEY ALSO DO NOT REPORT WEATHER SUCH
AS PRECIPITATION OR FOG.

IAZ001>003-012>014-020>022-031>034-043>046-260900-
   NORTHWEST IOWA

CITY           SKY/WX    TMP DP  RH WIND       PRES   REMARKS
CARROLL *      CLOUDY    68  68 100 CALM      29.82S FOG
CHEROKEE *     PTCLDY    70  70 100 CALM      29.83F
DENISON *      CLEAR     70  70 100 CALM      29.80F FOG
LE MARS *      CLEAR     68  68 100 CALM      29.83F FOG
ORANGE CITY *  CLEAR     73  70  88 CALM      29.84F
SHELDON *      CLOUDY    68  68 100 N5        29.84S FOG
SIOUX CITY     MOCLDY    74  71  91 NE3       29.81F
SPENCER        CLOUDY    69  68  96 NW3       29.85S FOG
STORM LAKE *   CLEAR     68  68 100 CALM      29.85R FOG
$$

IAZ055>058-069>071-079>083-090>094-260900-
   SOUTHWEST IOWA

CITY           SKY/WX    TMP DP  RH WIND       PRES   REMARKS
ATLANTIC *     CLOUDY    70  68  94 N6        29.81S FOG
AUDUBON *      CLEAR     72  68  88 CALM      29.83S FOG
CLARINDA *     CLEAR     72  72 100 N7        29.81R
COUNCIL BLFS *   N/A     72  72 100 N7        29.79F
CRESTON *      CLEAR     70  70 100 NE6       29.81S
HARLAN  *      PTCLDY    70  70 100 NE5       29.84F FOG
LAMONI         PTCLDY    75  72  90 SW9       29.78S
RED OAK *      CLOUDY    72  70  94 N3        29.80S
SHENANDOAH *   CLEAR     72  72 100 NE7       29.79S
$$

IAZ047>049-059>061-072>074-084-260900-
   CENTRAL IOWA

CITY           SKY/WX    TMP DP  RH WIND       PRES   REMARKS
AMES           PTCLDY    70  68  93 NE5       29.80F
ANKENY *       CLEAR     70  68  94 CALM      29.79F
CHARITON *     PTCLDY    70  68  94 CALM      29.79R
DES MOINES     PTCLDY    72  68  87 NE6       29.79S
GRINNELL*      CLOUDY    68  64  88 NE6       29.82S
KNOXVILLE *    CLEAR     70  68  94 NE3       29.78S
MARSHALLTOWN   CLOUDY    70  67  90 E7        29.81S
PELLA *        PTCLDY    68  68 100 CALM      29.80S
PERRY *          N/A     68  68 100 CALM      29.82R FOG
$$

IAZ004>006-015-016-023>025-035-036-260900-
   NORTH CENTRAL IOWA

CITY           SKY/WX    TMP DP  RH WIND       PRES   REMARKS
ALGONA *       CLEAR     70  70 100 SW5       29.84R
CLARION *      PTCLDY    70  70 100 E3        29.83S
ESTHERVILLE    CLOUDY    69  68  96 W5        29.85R FOG
FORT DODGE *   PTCLDY    68  66  94 E3        29.82F
MASON CITY     MOCLDY    70  70 100 SE7       29.83F FOG
FOREST CITY *    N/A     68  68 100 SE3       29.82F FOG
IOWA FALLS *   CLOUDY    72  70  94 CALM      29.84S
$$

IAZ007>011-017>019-026>030-037>042-050>054-066-260900-
   NORTHEAST IOWA

CITY           SKY/WX    TMP DP  RH WIND       PRES   REMARKS
CEDAR RAPIDS   MOCLDY    67  63  87 E6        29.82S
CHARLES CITY * CLOUDY    68  66  94 SE5       29.85F FOG
CLINTON *      CLOUDY    66  61  82 SE8       29.86F
DECORAH *      CLOUDY    64  64 100 SE5       29.84F FOG
DUBUQUE        CLOUDY    65  63  93 SE6       29.85F
MONTICELLO *   CLOUDY    66  64  94 E6        29.83F
OELWEIN *      CLOUDY    66  64  94 E5        29.84F
WATERLOO       CLOUDY    69  65  86 E6        29.82F
$$

IAZ064-065-067-068-078-260900-
   EAST CENTRAL IOWA

CITY           SKY/WX    TMP DP  RH WIND       PRES   REMARKS
DAVENPORT      MOCLDY    67  62  84 SE8       29.83F
IOWA CITY      CLEAR     68  63  84 E6        29.82F
MT. PLEASANT * CLEAR     68  63  83 SE7       29.79F
MUSCATINE *    PTCLDY    68  63  83 SE6       29.80F
QUAD CITIES    PTCLDY    67  62  84 E6        29.81F
$$

IAZ062-063-075>077-085>089-095>099-260900-
   SOUTHEAST IOWA

CITY           SKY/WX    TMP DP  RH WIND       PRES   REMARKS
BURLINGTON     CLEAR     69  64  84 S8        29.80F
FAIRFIELD *    CLEAR     68  64  88 SE5       29.79S
FORT MADISON * CLEAR     70  66  88 S10       29.81F
KEOKUK *       CLEAR     68  66  94 SE7       29.80S
OSKALOOSA *      N/A     68  66  94 NE5       29.79S
CENTERVILLE *  CLEAR     73  73 100 S5        29.80R
OTTUMWA        PTCLDY    68  66  93 SE3       29.77F
WASHINGTON *   CLEAR     66  64  94 SE6       29.79F
$$

ABBREVIATIONS USED IN REMARKS
   TC - TEMPERATURES IN CELSIUS
  WCI - WIND CHILL INDEX
   HX - HEAT INDEX
  VSB - VISIBILITY
$$



USA.gov is the U.S. government's official web portal to all federal, state and local government web resources and services.